SL-14 DEB, 45289

Orbit data source: Space-Track

SL-14 DEB, 45289 is space debris in LEO originally from a launch on Thu, 15 Aug 1991 UTC launched from the Plesetsk Missile And Space Complex (PKMTR). Debris objects in space refer to the collection of defunct objects orbiting the Earth. Examples of debris include non-operational satellites, rocket bodies, and fragments generated from explosions, collisions, or faulty payload assembly.

Loading next visibility...
Identifier
45289, 1991-056AB
Orbit
LEO
Country
Flag of CISCIS
Related business
Manufacturer
Unknown
Mission
Spacecraft
Bus & Motor
Unknown
Mass
Unknown
Launch date (UTC)
1991-08-15 (34 years ago)
Launch vehicle
Unknown
Launch site
Plesetsk Missile And Space Complex (PKMTR)
Object type
Payload
Rocket body
Debris
Shape & HBR
Unknown shape, 0.2 m
Radar Cross Section
Small (<0.1 m²)

Expand to show TLE details & history
Last TLE update: 1 day ago

TLE from 1 day ago
0 SL-14 DEB
1 45289U 91056AB  25349.74782038  .00000136  00000-0  49800-3 0  9995
2 45289  82.5389 354.1410 0178773 289.7794  68.4110 12.83117887272739
Epoch: 2025-12-15T17:56Z
TLE epoch observation values (Epoch: 2025-12-15T17:56:51.680Z)
Latitude
Longitude
0.28373°
Altitude
1,283.165 km
Speed
7.237 km/s
True Right ascension
23h 36m 33s
True Declination
0° 00' 00"
Sunlit
Object was in daylight at epoch
Visualization orbit readout
Latitude
Unknown
Longitude
Unknown
Altitude
Unknown
Speed
Unknown
Apparent Right ascension
Unknown
Apparent Declination
Unknown
Sunlit
N/A
Visualization observer readout
Local Sidereal Time
17:10:25
Azimuth
Unknown
Elevation
Unknown
Doppler factor
Unknown
Orbital elements
Apogee altitude
1,463.985 km
Perigee altitude
1,188.517 km
Semi-major axis
7,704.388 km
Eccentricity
0.01788
Inclination
82.5389°
RAAN
354.141°
Arg. of periapsis
289.7794°
True anomaly
70.3313°
Mean anomaly
68.411°
Eccentric anomaly
69.36961°
Mean motion
3.20949 °/min
Orbital period
112.17 mins
BSTAR
0.000498
Loading maneuver chart data...
Computing Atmospheric mass density...
Loading historical data...
Loading historical data...
Loading historical data...
Loading historical data...
Loading historical data...
Loading historical data...
Loading historical data...

Documentation

Showing up to 5 results
|